Year,Month,Day,Hour,Minute,Value (Times are PST for temperature in C)
2014,09,15,00,00,13.90
2014,09,15,00,01,14.10
2014,09,15,00,02,14.20
2014,09,15,00,03,14.30
2014,09,15,00,04,14.40
2014,09,15,00,05,14.50
2014,09,15,00,06,14.50
2014,09,15,00,07,14.60
2014,09,15,00,08,14.60
2014,09,15,00,09,14.70
2014,09,15,00,10,14.80
2014,09,15,00,11,14.80
2014,09,15,00,12,14.80
2014,09,15,00,13,14.80
2014,09,15,00,14,14.70
2014,09,15,00,15,14.70
2014,09,15,00,16,14.60
2014,09,15,00,17,14.50
2014,09,15,00,18,14.40
2014,09,15,00,19,14.30
2014,09,15,00,20,14.20
2014,09,15,00,21,14.20
2014,09,15,00,22,14.00
2014,09,15,00,23,14.00
2014,09,15,00,24,13.90
2014,09,15,00,25,13.80
2014,09,15,00,26,13.70
2014,09,15,00,27,13.70
2014,09,15,00,28,13.60
2014,09,15,00,29,13.60
2014,09,15,00,30,13.50
2014,09,15,00,31,13.50
2014,09,15,00,32,13.40
2014,09,15,00,33,13.30
2014,09,15,00,34,13.30
2014,09,15,00,35,13.30
2014,09,15,00,36,13.30
2014,09,15,00,37,13.20
2014,09,15,00,38,13.20
2014,09,15,00,39,13.10
2014,09,15,00,40,13.10
2014,09,15,00,41,13.10
2014,09,15,00,42,13.10
2014,09,15,00,43,13.10
2014,09,15,00,44,13.10
2014,09,15,00,45,13.10
2014,09,15,00,46,13.10
2014,09,15,00,47,13.10
2014,09,15,00,48,13.10
2014,09,15,00,49,13.20
2014,09,15,00,50,13.30
2014,09,15,00,51,13.30
2014,09,15,00,52,13.30
2014,09,15,00,53,13.40
2014,09,15,00,54,13.50
2014,09,15,00,55,13.50
2014,09,15,00,56,13.60
2014,09,15,00,57,13.60
2014,09,15,00,58,13.70
2014,09,15,00,59,13.70
2014,09,15,01,00,13.70
2014,09,15,01,01,13.70
2014,09,15,01,02,13.70
2014,09,15,01,03,13.70
2014,09,15,01,04,13.80
2014,09,15,01,05,13.80
2014,09,15,01,06,13.80
2014,09,15,01,07,13.80
2014,09,15,01,08,13.80
2014,09,15,01,09,13.80
2014,09,15,01,10,13.80
2014,09,15,01,11,13.80
2014,09,15,01,12,13.80
2014,09,15,01,13,13.70
2014,09,15,01,14,13.70
2014,09,15,01,15,13.70
2014,09,15,01,16,13.70
2014,09,15,01,17,13.70
2014,09,15,01,18,13.60
2014,09,15,01,19,13.60
2014,09,15,01,20,13.60
2014,09,15,01,21,13.50
2014,09,15,01,22,13.50
2014,09,15,01,23,13.50
2014,09,15,01,24,13.50
2014,09,15,01,25,13.40
2014,09,15,01,26,13.40
2014,09,15,01,27,13.40
2014,09,15,01,28,13.40
2014,09,15,01,29,13.40
2014,09,15,01,30,13.40
2014,09,15,01,31,13.40
2014,09,15,01,32,13.40
2014,09,15,01,33,13.40
2014,09,15,01,34,13.40
2014,09,15,01,35,13.50
2014,09,15,01,36,13.50
2014,09,15,01,37,13.50
2014,09,15,01,38,13.50
2014,09,15,01,39,13.50
2014,09,15,01,40,13.50
2014,09,15,01,41,13.60
2014,09,15,01,42,13.60
2014,09,15,01,43,13.60
2014,09,15,01,44,13.60
2014,09,15,01,45,13.60
2014,09,15,01,46,13.60
2014,09,15,01,47,13.60
2014,09,15,01,48,13.60
2014,09,15,01,49,13.70
2014,09,15,01,50,13.70
2014,09,15,01,51,13.70
2014,09,15,01,52,13.70
2014,09,15,01,53,13.70
2014,09,15,01,54,13.70
2014,09,15,01,55,13.80
2014,09,15,01,56,13.80
2014,09,15,01,57,13.90
2014,09,15,01,58,13.90
2014,09,15,01,59,14.00
2014,09,15,02,00,14.10
2014,09,15,02,01,14.20
2014,09,15,02,02,14.20
2014,09,15,02,03,14.20
2014,09,15,02,04,14.20
2014,09,15,02,05,14.20
2014,09,15,02,06,14.20
2014,09,15,02,07,14.20
2014,09,15,02,08,14.30
2014,09,15,02,09,14.30
2014,09,15,02,10,14.30
2014,09,15,02,11,14.30
2014,09,15,02,12,14.20
2014,09,15,02,13,14.20
2014,09,15,02,14,14.20
2014,09,15,02,15,14.20
2014,09,15,02,16,14.20
2014,09,15,02,17,14.20
2014,09,15,02,18,14.20
2014,09,15,02,19,14.20
2014,09,15,02,20,14.20
2014,09,15,02,21,14.10
2014,09,15,02,22,14.10
2014,09,15,02,23,14.00
2014,09,15,02,24,14.00
2014,09,15,02,25,14.00
2014,09,15,02,26,13.90
2014,09,15,02,27,13.90
2014,09,15,02,28,13.90
2014,09,15,02,29,13.80
2014,09,15,02,30,13.80
2014,09,15,02,31,13.80
2014,09,15,02,32,13.70
2014,09,15,02,33,13.70
2014,09,15,02,34,13.70
2014,09,15,02,35,13.70
2014,09,15,02,36,13.70
2014,09,15,02,37,13.60
2014,09,15,02,38,13.60
2014,09,15,02,39,13.50
2014,09,15,02,40,13.50
2014,09,15,02,41,13.40
2014,09,15,02,42,13.30
2014,09,15,02,43,13.30
2014,09,15,02,44,13.30
2014,09,15,02,45,13.20
2014,09,15,02,46,13.20
2014,09,15,02,47,13.10
2014,09,15,02,48,13.10
2014,09,15,02,49,13.00
2014,09,15,02,50,13.00
2014,09,15,02,51,13.00
2014,09,15,02,52,12.90
2014,09,15,02,53,12.90
2014,09,15,02,54,12.90
2014,09,15,02,55,12.80
2014,09,15,02,56,12.80
2014,09,15,02,57,12.80
2014,09,15,02,58,12.80
2014,09,15,02,59,12.80
2014,09,15,03,00,12.80
2014,09,15,03,01,12.80
2014,09,15,03,02,12.70
2014,09,15,03,03,12.70
2014,09,15,03,04,12.70
2014,09,15,03,05,12.70
2014,09,15,03,06,12.70
2014,09,15,03,07,12.70
2014,09,15,03,08,12.70
2014,09,15,03,09,12.70
2014,09,15,03,10,12.70
2014,09,15,03,11,12.70
2014,09,15,03,12,12.70
2014,09,15,03,13,12.70
2014,09,15,03,14,12.70
2014,09,15,03,15,12.70
2014,09,15,03,16,12.80
2014,09,15,03,17,12.80
2014,09,15,03,18,12.80
2014,09,15,03,19,12.90
2014,09,15,03,20,12.90
2014,09,15,03,21,13.00
2014,09,15,03,22,13.10
2014,09,15,03,23,13.20
2014,09,15,03,24,13.20
2014,09,15,03,25,13.30
2014,09,15,03,26,13.30
2014,09,15,03,27,13.40
2014,09,15,03,28,13.50
2014,09,15,03,29,13.60
2014,09,15,03,30,13.70
2014,09,15,03,31,13.70
2014,09,15,03,32,13.90
2014,09,15,03,33,13.90
2014,09,15,03,34,14.00
2014,09,15,03,35,14.10
2014,09,15,03,36,14.20
2014,09,15,03,37,14.30
2014,09,15,03,38,14.40
2014,09,15,03,39,14.40
2014,09,15,03,40,14.40
2014,09,15,03,41,14.40
2014,09,15,03,42,14.40
2014,09,15,03,43,14.20
2014,09,15,03,44,14.20
2014,09,15,03,45,14.10
2014,09,15,03,46,14.00
2014,09,15,03,47,13.90
2014,09,15,03,48,13.90
2014,09,15,03,49,13.80
2014,09,15,03,50,13.70
2014,09,15,03,51,13.70
2014,09,15,03,52,13.60
2014,09,15,03,53,13.60
2014,09,15,03,54,13.50
2014,09,15,03,55,13.50
2014,09,15,03,56,13.40
2014,09,15,03,57,13.40
2014,09,15,03,58,13.30
2014,09,15,03,59,13.30
2014,09,15,04,00,13.30
2014,09,15,04,01,13.20
2014,09,15,04,02,13.20
2014,09,15,04,03,13.10
2014,09,15,04,04,13.10
2014,09,15,04,05,13.10
2014,09,15,04,06,13.10
2014,09,15,04,07,13.10
2014,09,15,04,08,13.10
2014,09,15,04,09,13.10
2014,09,15,04,10,13.10
2014,09,15,04,11,13.20
2014,09,15,04,12,13.20
2014,09,15,04,13,13.20
2014,09,15,04,14,13.30
2014,09,15,04,15,13.30
2014,09,15,04,16,13.30
2014,09,15,04,17,13.30
2014,09,15,04,18,13.30
2014,09,15,04,19,13.30
2014,09,15,04,20,13.30
2014,09,15,04,21,13.30
2014,09,15,04,22,13.30
2014,09,15,04,23,13.30
2014,09,15,04,24,13.30
2014,09,15,04,25,13.30
2014,09,15,04,26,13.30
2014,09,15,04,27,13.30
2014,09,15,04,28,13.30
2014,09,15,04,29,13.30
2014,09,15,04,30,13.30
2014,09,15,04,31,13.30
2014,09,15,04,32,13.30
2014,09,15,04,33,13.30
2014,09,15,04,34,13.20
2014,09,15,04,35,13.20
2014,09,15,04,36,13.20
2014,09,15,04,37,13.10
2014,09,15,04,38,13.10
2014,09,15,04,39,13.00
2014,09,15,04,40,13.00
2014,09,15,04,41,13.00
2014,09,15,04,42,12.90
2014,09,15,04,43,12.90
2014,09,15,04,44,12.90
2014,09,15,04,45,12.80
2014,09,15,04,46,12.80
2014,09,15,04,47,12.80
2014,09,15,04,48,12.80
2014,09,15,04,49,12.80
2014,09,15,04,50,12.80
2014,09,15,04,51,12.70
2014,09,15,04,52,12.70
2014,09,15,04,53,12.70
2014,09,15,04,54,12.70
2014,09,15,04,55,12.70
2014,09,15,04,56,12.70
2014,09,15,04,57,12.70
2014,09,15,04,58,12.70
2014,09,15,04,59,12.70
2014,09,15,05,00,12.70
2014,09,15,05,01,12.80
2014,09,15,05,02,12.80
2014,09,15,05,03,12.90
2014,09,15,05,04,13.00
2014,09,15,05,05,13.10
2014,09,15,05,06,13.20
2014,09,15,05,07,13.30
2014,09,15,05,08,13.30
2014,09,15,05,09,13.30
2014,09,15,05,10,13.40
2014,09,15,05,11,13.40
2014,09,15,05,12,13.40
2014,09,15,05,13,13.40
2014,09,15,05,14,13.40
2014,09,15,05,15,13.30
2014,09,15,05,16,13.30
2014,09,15,05,17,13.30
2014,09,15,05,18,13.30
2014,09,15,05,19,13.30
2014,09,15,05,20,13.30
2014,09,15,05,21,13.30
2014,09,15,05,22,13.30
2014,09,15,05,23,13.30
2014,09,15,05,24,13.30
2014,09,15,05,25,13.30
2014,09,15,05,26,13.20
2014,09,15,05,27,13.20
2014,09,15,05,28,13.20
2014,09,15,05,29,13.10
2014,09,15,05,30,13.10
2014,09,15,05,31,13.10
2014,09,15,05,32,13.00
2014,09,15,05,33,13.00
2014,09,15,05,34,13.00
2014,09,15,05,35,13.00
2014,09,15,05,36,13.00
2014,09,15,05,37,13.00
2014,09,15,05,38,12.90
2014,09,15,05,39,12.90
2014,09,15,05,40,12.90
2014,09,15,05,41,12.80
2014,09,15,05,42,12.80
2014,09,15,05,43,12.80
2014,09,15,05,44,12.80
2014,09,15,05,45,12.80
2014,09,15,05,46,12.70
2014,09,15,05,47,12.70
2014,09,15,05,48,12.70
2014,09,15,05,49,12.60
2014,09,15,05,50,12.60
2014,09,15,05,51,12.50
2014,09,15,05,52,12.50
2014,09,15,05,53,12.50
2014,09,15,05,54,12.40
2014,09,15,05,55,12.40
2014,09,15,05,56,12.40
2014,09,15,05,57,12.40
2014,09,15,05,58,12.40
2014,09,15,05,59,12.40
2014,09,15,06,00,12.40
2014,09,15,06,01,12.50
2014,09,15,06,02,12.50
2014,09,15,06,03,12.50
2014,09,15,06,04,12.60
2014,09,15,06,05,12.60
2014,09,15,06,06,12.60
2014,09,15,06,07,12.70
2014,09,15,06,08,12.70
2014,09,15,06,09,12.70
2014,09,15,06,10,12.70
2014,09,15,06,11,12.70
2014,09,15,06,12,12.70
2014,09,15,06,13,12.70
2014,09,15,06,14,12.70
2014,09,15,06,15,12.70
2014,09,15,06,16,12.60
2014,09,15,06,17,12.60
2014,09,15,06,18,12.60
2014,09,15,06,19,12.60
2014,09,15,06,20,12.60
2014,09,15,06,21,12.70
2014,09,15,06,22,12.70
2014,09,15,06,23,12.70
2014,09,15,06,24,12.70
2014,09,15,06,25,12.80
2014,09,15,06,26,12.80
2014,09,15,06,27,12.80
2014,09,15,06,28,12.90
2014,09,15,06,29,12.90
2014,09,15,06,30,13.00
2014,09,15,06,31,13.00
2014,09,15,06,32,13.10
2014,09,15,06,33,13.10
2014,09,15,06,34,13.20
2014,09,15,06,35,13.30
2014,09,15,06,36,13.30
2014,09,15,06,37,13.30
2014,09,15,06,38,13.30
2014,09,15,06,39,13.30
2014,09,15,06,40,13.30
2014,09,15,06,41,13.30
2014,09,15,06,42,13.10
2014,09,15,06,43,13.00
2014,09,15,06,44,12.80
2014,09,15,06,45,12.70
2014,09,15,06,46,12.50
2014,09,15,06,47,12.40
2014,09,15,06,48,12.30
2014,09,15,06,49,12.10
2014,09,15,06,50,12.00
2014,09,15,06,51,11.90
2014,09,15,06,52,11.80
2014,09,15,06,53,11.80
2014,09,15,06,54,11.70
2014,09,15,06,55,11.60
2014,09,15,06,56,11.60
2014,09,15,06,57,11.60
2014,09,15,06,58,11.50
2014,09,15,06,59,11.40
2014,09,15,07,00,11.40
2014,09,15,07,01,11.40
2014,09,15,07,02,11.40
2014,09,15,07,03,11.40
2014,09,15,07,04,11.40
2014,09,15,07,05,11.50
2014,09,15,07,06,11.60
2014,09,15,07,07,11.60
2014,09,15,07,08,11.60
2014,09,15,07,09,11.70
2014,09,15,07,10,11.70
2014,09,15,07,11,11.80
2014,09,15,07,12,11.80
2014,09,15,07,13,11.80
2014,09,15,07,14,11.90
2014,09,15,07,15,11.90
2014,09,15,07,16,12.00
2014,09,15,07,17,12.10
2014,09,15,07,18,12.10
2014,09,15,07,19,12.20
2014,09,15,07,20,12.30
2014,09,15,07,21,12.30
2014,09,15,07,22,12.40
2014,09,15,07,23,12.40
2014,09,15,07,24,12.50
2014,09,15,07,25,12.60
2014,09,15,07,26,12.70
2014,09,15,07,27,12.80
2014,09,15,07,28,12.80
2014,09,15,07,29,12.90
2014,09,15,07,30,12.90
2014,09,15,07,31,12.90
2014,09,15,07,32,12.90
2014,09,15,07,33,12.90
2014,09,15,07,34,12.90
2014,09,15,07,35,12.90
2014,09,15,07,36,12.90
2014,09,15,07,37,12.90
2014,09,15,07,38,12.90
2014,09,15,07,39,12.90
2014,09,15,07,40,13.00
2014,09,15,07,41,13.00
2014,09,15,07,42,13.00
2014,09,15,07,43,13.00
2014,09,15,07,44,13.00
2014,09,15,07,45,13.10
2014,09,15,07,46,13.10
2014,09,15,07,47,13.00
2014,09,15,07,48,13.10
2014,09,15,07,49,13.10
2014,09,15,07,50,13.10
2014,09,15,07,51,13.10
2014,09,15,07,52,13.00
2014,09,15,07,53,13.00
2014,09,15,07,54,13.00
2014,09,15,07,55,13.00
2014,09,15,07,56,13.00
2014,09,15,07,57,13.00
2014,09,15,07,58,13.00
2014,09,15,07,59,13.00
2014,09,15,08,00,13.00
2014,09,15,08,01,13.00
2014,09,15,08,02,13.00
2014,09,15,08,03,13.00
2014,09,15,08,04,13.00
2014,09,15,08,05,13.10
2014,09,15,08,06,13.10
2014,09,15,08,07,13.10
2014,09,15,08,08,13.20
2014,09,15,08,09,13.30
2014,09,15,08,10,13.30
2014,09,15,08,11,13.30
2014,09,15,08,12,13.40
2014,09,15,08,13,13.50
2014,09,15,08,14,13.50
2014,09,15,08,15,13.60
2014,09,15,08,16,13.70
2014,09,15,08,17,13.70
2014,09,15,08,18,13.80
2014,09,15,08,19,13.80
2014,09,15,08,20,13.90
2014,09,15,08,21,14.00
2014,09,15,08,22,14.10
2014,09,15,08,23,14.20
2014,09,15,08,24,14.30
2014,09,15,08,25,14.40
2014,09,15,08,26,14.50
2014,09,15,08,27,14.70
2014,09,15,08,28,14.80
2014,09,15,08,29,14.90
2014,09,15,08,30,15.00
2014,09,15,08,31,15.10
2014,09,15,08,32,15.30
2014,09,15,08,33,15.40
2014,09,15,08,34,15.60
2014,09,15,08,35,15.80
2014,09,15,08,36,16.00
2014,09,15,08,37,16.20
2014,09,15,08,38,16.30
2014,09,15,08,39,16.50
2014,09,15,08,40,16.70
2014,09,15,08,41,16.90
2014,09,15,08,42,17.00
2014,09,15,08,43,17.10
2014,09,15,08,44,17.20
2014,09,15,08,45,17.30
2014,09,15,08,46,17.30
2014,09,15,08,47,17.40
2014,09,15,08,48,17.50
2014,09,15,08,49,17.50
2014,09,15,08,50,17.60
2014,09,15,08,51,17.70
2014,09,15,08,52,17.80
2014,09,15,08,53,17.90
2014,09,15,08,54,18.00
2014,09,15,08,55,18.20
2014,09,15,08,56,18.30
2014,09,15,08,57,18.50
2014,09,15,08,58,18.60
2014,09,15,08,59,18.70
2014,09,15,09,00,18.70
2014,09,15,09,01,18.90
2014,09,15,09,02,19.00
2014,09,15,09,03,19.10
2014,09,15,09,04,19.10
2014,09,15,09,05,19.20
2014,09,15,09,06,19.30
2014,09,15,09,07,19.40
2014,09,15,09,08,19.50
2014,09,15,09,09,19.50
2014,09,15,09,10,19.60
2014,09,15,09,11,19.70
2014,09,15,09,12,19.70
2014,09,15,09,13,19.80
2014,09,15,09,14,19.80
2014,09,15,09,15,19.90
2014,09,15,09,16,19.90
2014,09,15,09,17,20.00
2014,09,15,09,18,20.10
2014,09,15,09,19,20.20
2014,09,15,09,20,20.20
2014,09,15,09,21,20.30
2014,09,15,09,22,20.30
2014,09,15,09,23,20.40
2014,09,15,09,24,20.40
2014,09,15,09,25,20.50
2014,09,15,09,26,20.50
2014,09,15,09,27,20.50
2014,09,15,09,28,20.60
2014,09,15,09,29,20.60
2014,09,15,09,30,20.70
2014,09,15,09,31,20.70
2014,09,15,09,32,20.80
2014,09,15,09,33,20.90
2014,09,15,09,34,20.90
2014,09,15,09,35,21.00
2014,09,15,09,36,21.00
2014,09,15,09,37,21.10
2014,09,15,09,38,21.10
2014,09,15,09,39,21.10
2014,09,15,09,40,21.20
2014,09,15,09,41,21.20
2014,09,15,09,42,21.30
2014,09,15,09,43,21.30
2014,09,15,09,44,21.30
2014,09,15,09,45,21.30
2014,09,15,09,46,21.30
2014,09,15,09,47,21.40
2014,09,15,09,48,21.40
2014,09,15,09,49,21.40
2014,09,15,09,50,21.50
2014,09,15,09,51,21.60
2014,09,15,09,52,21.60
2014,09,15,09,53,21.70
2014,09,15,09,54,21.80
2014,09,15,09,55,21.80
2014,09,15,09,56,21.80
2014,09,15,09,57,21.90
2014,09,15,09,58,21.90
2014,09,15,09,59,21.90
2014,09,15,10,00,21.90
2014,09,15,10,01,21.90
2014,09,15,10,02,22.00
2014,09,15,10,03,22.00
2014,09,15,10,04,22.10
2014,09,15,10,05,22.10
2014,09,15,10,06,22.10
2014,09,15,10,07,22.20
2014,09,15,10,08,22.20
2014,09,15,10,09,22.30
2014,09,15,10,10,22.30
2014,09,15,10,11,22.40
2014,09,15,10,12,22.40
2014,09,15,10,13,22.50
2014,09,15,10,14,22.50
2014,09,15,10,15,22.50
2014,09,15,10,16,22.50
2014,09,15,10,17,22.60
2014,09,15,10,18,22.60
2014,09,15,10,19,22.60
2014,09,15,10,20,22.60
2014,09,15,10,21,22.70
2014,09,15,10,22,22.70
2014,09,15,10,23,22.70
2014,09,15,10,24,22.70
2014,09,15,10,25,22.70
2014,09,15,10,26,22.70
2014,09,15,10,27,22.80
2014,09,15,10,28,22.80
2014,09,15,10,29,22.80
2014,09,15,10,30,22.80
2014,09,15,10,31,22.80
2014,09,15,10,32,22.80
2014,09,15,10,33,22.80
2014,09,15,10,34,22.90
2014,09,15,10,35,22.90
2014,09,15,10,36,22.90
2014,09,15,10,37,22.90
2014,09,15,10,38,23.00
2014,09,15,10,39,23.10
2014,09,15,10,40,23.10
2014,09,15,10,41,23.10
2014,09,15,10,42,22.90
2014,09,15,10,43,23.00
2014,09,15,10,44,23.10
2014,09,15,10,45,23.10
2014,09,15,10,46,23.10
2014,09,15,10,47,23.20
2014,09,15,10,48,23.20
2014,09,15,10,49,23.20
2014,09,15,10,50,23.20
2014,09,15,10,51,23.20
2014,09,15,10,52,23.20
2014,09,15,10,53,23.20
2014,09,15,10,54,23.30
2014,09,15,10,55,23.30
2014,09,15,10,56,23.30
2014,09,15,10,57,23.40
2014,09,15,10,58,23.40
2014,09,15,10,59,23.50
2014,09,15,11,00,23.60
2014,09,15,11,01,23.70
2014,09,15,11,02,23.70
2014,09,15,11,03,23.70
2014,09,15,11,04,23.70
2014,09,15,11,05,23.70
2014,09,15,11,06,23.70
2014,09,15,11,07,23.70
2014,09,15,11,08,23.70
2014,09,15,11,09,23.70
2014,09,15,11,10,23.80
2014,09,15,11,11,23.80
2014,09,15,11,12,23.90
2014,09,15,11,13,23.90
2014,09,15,11,14,23.90
2014,09,15,11,15,23.90
2014,09,15,11,16,24.00
2014,09,15,11,17,24.10
2014,09,15,11,18,24.10
2014,09,15,11,19,24.10
2014,09,15,11,20,24.10
2014,09,15,11,21,24.10
2014,09,15,11,22,24.10
2014,09,15,11,23,24.10
2014,09,15,11,24,24.10
2014,09,15,11,25,24.10
2014,09,15,11,26,24.10
2014,09,15,11,27,24.10
2014,09,15,11,28,24.10
2014,09,15,11,29,24.10
2014,09,15,11,30,24.10
2014,09,15,11,31,24.10
2014,09,15,11,32,24.10
2014,09,15,11,33,24.10
2014,09,15,11,34,24.10
2014,09,15,11,35,24.10
2014,09,15,11,36,24.10
2014,09,15,11,37,24.10
2014,09,15,11,38,24.10
2014,09,15,11,39,24.10
2014,09,15,11,40,24.10
2014,09,15,11,41,24.10
2014,09,15,11,42,24.20
2014,09,15,11,43,24.30
2014,09,15,11,44,24.40
2014,09,15,11,45,24.50
2014,09,15,11,46,24.50
2014,09,15,11,47,24.60
2014,09,15,11,48,24.60
2014,09,15,11,49,24.60
2014,09,15,11,50,24.60
2014,09,15,11,51,24.60
2014,09,15,11,52,24.70
2014,09,15,11,53,24.80
2014,09,15,11,54,24.90
2014,09,15,11,55,24.90
2014,09,15,11,56,24.90
2014,09,15,11,57,25.00
2014,09,15,11,58,25.10
2014,09,15,11,59,25.20
2014,09,15,12,00,25.20
2014,09,15,12,01,25.10
2014,09,15,12,02,25.20
2014,09,15,12,03,25.20
2014,09,15,12,04,25.20
2014,09,15,12,05,25.20
2014,09,15,12,06,25.10
2014,09,15,12,07,25.00
2014,09,15,12,08,24.90
2014,09,15,12,09,24.80
2014,09,15,12,10,24.70
2014,09,15,12,11,24.70
2014,09,15,12,12,24.80
2014,09,15,12,13,24.80
2014,09,15,12,14,24.90
2014,09,15,12,15,25.00
2014,09,15,12,16,25.10
2014,09,15,12,17,25.20
2014,09,15,12,18,25.30
2014,09,15,12,19,25.30
2014,09,15,12,20,25.40
2014,09,15,12,21,25.40
2014,09,15,12,22,25.50
2014,09,15,12,23,25.50
2014,09,15,12,24,25.50
2014,09,15,12,25,25.50
2014,09,15,12,26,25.60
2014,09,15,12,27,25.60
2014,09,15,12,28,25.60
2014,09,15,12,29,25.60
2014,09,15,12,30,25.50
2014,09,15,12,31,25.50
2014,09,15,12,32,25.60
2014,09,15,12,33,25.60
2014,09,15,12,34,25.60
2014,09,15,12,35,25.70
2014,09,15,12,36,25.80
2014,09,15,12,37,25.90
2014,09,15,12,38,26.00
2014,09,15,12,39,26.10
2014,09,15,12,40,26.30
2014,09,15,12,41,26.40
2014,09,15,12,42,26.40
2014,09,15,12,43,26.40
2014,09,15,12,44,26.40
2014,09,15,12,45,26.40
2014,09,15,12,46,26.50
2014,09,15,12,47,26.50
2014,09,15,12,48,26.40
2014,09,15,12,49,26.40
2014,09,15,12,50,26.40
2014,09,15,12,51,26.40
2014,09,15,12,52,26.40
2014,09,15,12,53,26.40
2014,09,15,12,54,26.30
2014,09,15,12,55,26.30
2014,09,15,12,56,26.30
2014,09,15,12,57,26.40
2014,09,15,12,58,26.40
2014,09,15,12,59,26.50
2014,09,15,13,00,26.60
2014,09,15,13,01,26.60
2014,09,15,13,02,26.60
2014,09,15,13,03,26.60
2014,09,15,13,04,26.60
2014,09,15,13,05,26.70
2014,09,15,13,06,26.80
2014,09,15,13,07,26.80
2014,09,15,13,08,26.70
2014,09,15,13,09,26.60
2014,09,15,13,10,26.60
2014,09,15,13,11,26.60
2014,09,15,13,12,26.70
2014,09,15,13,13,26.80
2014,09,15,13,14,26.90
2014,09,15,13,15,27.00
2014,09,15,13,16,27.00
2014,09,15,13,17,26.90
2014,09,15,13,18,26.90
2014,09,15,13,19,26.90
2014,09,15,13,20,26.90
2014,09,15,13,21,26.90
2014,09,15,13,22,26.80
2014,09,15,13,23,26.80
2014,09,15,13,24,26.90
2014,09,15,13,25,26.90
2014,09,15,13,26,27.00
2014,09,15,13,27,27.10
2014,09,15,13,28,27.20
2014,09,15,13,29,27.20
2014,09,15,13,30,27.30
2014,09,15,13,31,27.30
2014,09,15,13,32,27.30
2014,09,15,13,33,27.30
2014,09,15,13,34,27.30
2014,09,15,13,35,27.30
2014,09,15,13,36,27.30
2014,09,15,13,37,27.40
2014,09,15,13,38,27.40
2014,09,15,13,39,27.30
2014,09,15,13,40,27.30
2014,09,15,13,41,27.30
2014,09,15,13,42,27.30
2014,09,15,13,43,27.30
2014,09,15,13,44,27.20
2014,09,15,13,45,27.20
2014,09,15,13,46,27.20
2014,09,15,13,47,27.20
2014,09,15,13,48,27.20
2014,09,15,13,49,27.20
2014,09,15,13,50,27.20
2014,09,15,13,51,27.30
2014,09,15,13,52,27.30
2014,09,15,13,53,27.40
2014,09,15,13,54,27.40
2014,09,15,13,55,27.40
2014,09,15,13,56,27.30
2014,09,15,13,57,27.40
2014,09,15,13,58,27.50
2014,09,15,13,59,27.60
2014,09,15,14,00,27.60
2014,09,15,14,01,27.50
2014,09,15,14,02,27.40
2014,09,15,14,03,27.40
2014,09,15,14,04,27.30
2014,09,15,14,05,27.30
2014,09,15,14,06,27.30
2014,09,15,14,07,27.40
2014,09,15,14,08,27.40
2014,09,15,14,09,27.30
2014,09,15,14,10,27.30
2014,09,15,14,11,27.30
2014,09,15,14,12,27.30
2014,09,15,14,13,27.30
2014,09,15,14,14,27.30
2014,09,15,14,15,27.30
2014,09,15,14,16,27.30
2014,09,15,14,17,27.30
2014,09,15,14,18,27.30
2014,09,15,14,19,27.20
2014,09,15,14,20,27.20
2014,09,15,14,21,27.30
2014,09,15,14,22,27.20
2014,09,15,14,23,27.30
2014,09,15,14,24,27.30
2014,09,15,14,25,27.40
2014,09,15,14,26,27.40
2014,09,15,14,27,27.40
2014,09,15,14,28,27.50
2014,09,15,14,29,27.60
2014,09,15,14,30,27.70
2014,09,15,14,31,27.80
2014,09,15,14,32,27.80
2014,09,15,14,33,27.80
2014,09,15,14,34,27.70
2014,09,15,14,35,27.70
2014,09,15,14,36,27.70
2014,09,15,14,37,27.70
2014,09,15,14,38,27.70
2014,09,15,14,39,27.70
2014,09,15,14,40,27.70
2014,09,15,14,41,27.70
2014,09,15,14,42,27.80
2014,09,15,14,43,27.80
2014,09,15,14,44,27.80
2014,09,15,14,45,27.90
2014,09,15,14,46,28.00
2014,09,15,14,47,28.00
2014,09,15,14,48,28.00
2014,09,15,14,49,28.00
2014,09,15,14,50,27.80
2014,09,15,14,51,27.80
2014,09,15,14,52,27.70
2014,09,15,14,53,27.70
2014,09,15,14,54,27.60
2014,09,15,14,55,27.40
2014,09,15,14,56,27.30
2014,09,15,14,57,27.20
2014,09,15,14,58,27.20
2014,09,15,14,59,27.20
2014,09,15,15,00,27.20
2014,09,15,15,01,27.20
2014,09,15,15,02,27.20
2014,09,15,15,03,27.20
2014,09,15,15,04,27.20
2014,09,15,15,05,27.20
2014,09,15,15,06,27.10
2014,09,15,15,07,27.00
2014,09,15,15,08,26.90
2014,09,15,15,09,26.90
2014,09,15,15,10,26.90
2014,09,15,15,11,26.80
2014,09,15,15,12,26.90
2014,09,15,15,13,27.00
2014,09,15,15,14,27.10
2014,09,15,15,15,27.20
2014,09,15,15,16,27.30
2014,09,15,15,17,27.40
2014,09,15,15,18,27.50
2014,09,15,15,19,27.60
2014,09,15,15,20,27.60
2014,09,15,15,21,27.70
2014,09,15,15,22,27.80
2014,09,15,15,23,27.80
2014,09,15,15,24,27.70
2014,09,15,15,25,27.70
2014,09,15,15,26,27.70
2014,09,15,15,27,27.70
2014,09,15,15,28,27.70
2014,09,15,15,29,27.60
2014,09,15,15,30,27.60
2014,09,15,15,31,27.60
2014,09,15,15,32,27.60
2014,09,15,15,33,27.60
2014,09,15,15,34,27.70
2014,09,15,15,35,27.70
2014,09,15,15,36,27.80
2014,09,15,15,37,27.90
2014,09,15,15,38,27.90
2014,09,15,15,39,27.90
2014,09,15,15,40,27.80
2014,09,15,15,41,27.80
2014,09,15,15,42,27.70
2014,09,15,15,43,27.50
2014,09,15,15,44,27.40
2014,09,15,15,45,27.40
2014,09,15,15,46,27.30
2014,09,15,15,47,27.40
2014,09,15,15,48,27.40
2014,09,15,15,49,27.40
2014,09,15,15,50,27.50
2014,09,15,15,51,27.60
2014,09,15,15,52,27.60
2014,09,15,15,53,27.60
2014,09,15,15,54,27.70
2014,09,15,15,55,27.80
2014,09,15,15,56,27.90
2014,09,15,15,57,28.00
2014,09,15,15,58,28.00
2014,09,15,15,59,28.00
2014,09,15,16,00,27.80
2014,09,15,16,01,27.70
2014,09,15,16,02,27.70
2014,09,15,16,03,27.60
2014,09,15,16,04,27.60
2014,09,15,16,05,27.60
2014,09,15,16,06,27.60
2014,09,15,16,07,27.70
2014,09,15,16,08,27.70
2014,09,15,16,09,27.70
2014,09,15,16,10,27.70
2014,09,15,16,11,27.60
2014,09,15,16,12,27.50
2014,09,15,16,13,27.40
2014,09,15,16,14,27.30
2014,09,15,16,15,27.30
2014,09,15,16,16,27.30
2014,09,15,16,17,27.20
2014,09,15,16,18,27.20
2014,09,15,16,19,27.10
2014,09,15,16,20,27.00
2014,09,15,16,21,26.80
2014,09,15,16,22,26.80
2014,09,15,16,23,26.70
2014,09,15,16,24,26.70
2014,09,15,16,25,26.70
2014,09,15,16,26,26.60
2014,09,15,16,27,26.70
2014,09,15,16,28,26.70
2014,09,15,16,29,26.70
2014,09,15,16,30,26.70
2014,09,15,16,31,26.70
2014,09,15,16,32,26.70
2014,09,15,16,33,26.70
2014,09,15,16,34,26.70
2014,09,15,16,35,26.60
2014,09,15,16,36,26.60
2014,09,15,16,37,26.60
2014,09,15,16,38,26.60
2014,09,15,16,39,26.60
2014,09,15,16,40,26.60
2014,09,15,16,41,26.60
2014,09,15,16,42,26.50
2014,09,15,16,43,26.40
2014,09,15,16,44,26.40
2014,09,15,16,45,26.30
2014,09,15,16,46,26.40
2014,09,15,16,47,26.40
2014,09,15,16,48,26.50
2014,09,15,16,49,26.60
2014,09,15,16,50,26.60
2014,09,15,16,51,26.70
2014,09,15,16,52,26.70
2014,09,15,16,53,26.60
2014,09,15,16,54,26.60
2014,09,15,16,55,26.60
2014,09,15,16,56,26.60
2014,09,15,16,57,26.60
2014,09,15,16,58,26.50
2014,09,15,16,59,26.60
2014,09,15,17,00,26.60
2014,09,15,17,01,26.60
2014,09,15,17,02,26.50
2014,09,15,17,03,26.40
2014,09,15,17,04,26.30
2014,09,15,17,05,26.30
2014,09,15,17,06,26.20
2014,09,15,17,07,26.20
2014,09,15,17,08,26.10
2014,09,15,17,09,26.10
2014,09,15,17,10,26.00
2014,09,15,17,11,26.00
2014,09,15,17,12,25.90
2014,09,15,17,13,25.90
2014,09,15,17,14,25.90
2014,09,15,17,15,25.90
2014,09,15,17,16,25.90
2014,09,15,17,17,25.90
2014,09,15,17,18,25.90
2014,09,15,17,19,25.90